| time (UTC) | temp C | wind direction | speed KPH | gust KPH | rain 1hr cm | rain 24hr cm | rain mn cm | humidity % | barometer mb |
| 20260506165222 | 12 | 79 | 16.1 | 24.1 | 0.00 | 0.20 | 0.20 | 87 | 1014.3 |
| 20260506164720 | 12 | 331 | 17.7 | 29.0 | 0.00 | 0.20 | 0.20 | 88 | 1014.6 |
| 20260506164216 | 12 | 63 | 16.1 | 37.0 | 0.00 | 0.20 | 0.20 | 88 | 1015.0 |
| 20260506163713 | 11 | 8 | 4.8 | 37.0 | 0.00 | 0.20 | 0.20 | 88 | 1014.8 |
| 20260506163208 | 11 | 7 | 14.5 | 29.0 | 0.00 | 0.20 | 0.20 | 88 | 1014.7 |
| 20260506162704 | 11 | 303 | 20.9 | 41.8 | 0.00 | 0.20 | 0.20 | 88 | 1014.7 |
| 20260506162202 | 11 | 21 | 17.7 | 29.0 | 0.00 | 0.20 | 0.20 | 88 | 1014.9 |
| 20260506161659 | 11 | 36 | 12.9 | 29.0 | 0.00 | 0.20 | 0.20 | 88 | 1014.8 |
| 20260506161155 | 11 | 346 | 11.3 | 41.8 | 0.00 | 0.20 | 0.20 | 88 | 1014.7 |
| 20260506160653 | 11 | 21 | 11.3 | 37.0 | 0.00 | 0.20 | 0.20 | 88 | 1014.9 |
| 20260506160150 | 12 | 88 | 6.4 | 29.0 | 0.00 | 0.20 | 0.20 | 89 | 1014.6 |
| 20260506155649 | 11 | 3 | 24.1 | 41.8 | 0.00 | 0.20 | 0.20 | 90 | 1014.2 |
| 20260506155145 | 11 | 25 | 17.7 | 33.8 | 0.00 | 0.20 | 0.20 | 93 | 1013.8 |
| 20260506153247 | 11 | 16 | 20.9 | 41.8 | 0.00 | 0.20 | 0.20 | 93 | 1014.2 |
| 20260506152744 | 11 | 52 | 8.0 | 33.8 | 0.00 | 0.20 | 0.20 | 93 | 1014.8 |
| 20260506152242 | 11 | 27 | 22.5 | 33.8 | 0.00 | 0.20 | 0.20 | 93 | 1014.7 |
| 20260506151741 | 11 | 11 | 11.3 | 16.1 | 0.00 | 0.20 | 0.20 | 93 | 1015.3 |
| 20260506151237 | 10 | 31 | 12.9 | 20.9 | 0.00 | 0.20 | 0.20 | 93 | 1015.1 |
| 20260506150733 | 10 | 130 | 6.4 | 20.9 | 0.13 | 0.20 | 0.20 | 92 | 1014.8 |
| 20260506150231 | 10 | 356 | 12.9 | 16.1 | 0.30 | 0.20 | 0.20 | 92 | 1015.6 |
| 20260506145728 | 10 | 26 | 17.7 | 24.1 | 0.30 | 0.18 | 0.18 | 91 | 1015.2 |
| 20260506145224 | 10 | 355 | 25.7 | 37.0 | 0.48 | 0.15 | 0.15 | 90 | 1014.9 |
| 20260506144721 | 11 | 342 | 12.9 | 16.1 | 0.79 | 0.13 | 0.13 | 88 | 1016.4 |
| 20260506144218 | 11 | 317 | 6.4 | 12.9 | 0.43 | 0.08 | 0.08 | 87 | 1016.6 |
| 20260506143716 | 11 | 321 | 6.4 | 16.1 | 0.00 | 0.00 | 0.00 | 85 | 1015.9 |
| 20260506143213 | 11 | 19 | 11.3 | 16.1 | 0.00 | 0.00 | 0.00 | 85 | 1015.8 |
| 20260506142712 | 11 | 204 | 0.0 | 3.2 | 0.00 | 0.00 | 0.00 | 85 | 1016.2 |
| 20260506142209 | 11 | 42 | 17.7 | 29.0 | 0.00 | 0.00 | 0.00 | 85 | 1014.8 |
| 20260506141707 | 11 | 18 | 14.5 | 33.8 | 0.00 | 0.00 | 0.00 | 85 | 1014.3 |
| 20260506141205 | 11 | 33 | 12.9 | 24.1 | 0.00 | 0.00 | 0.00 | 85 | 1014.1 |
| 20260506140702 | 11 | 0 | 14.5 | 29.0 | 0.00 | 0.00 | 0.00 | 85 | 1014.3 |
| 20260506140159 | 11 | 24 | 19.3 | 29.0 | 0.00 | 0.00 | 0.00 | 84 | 1014.4 |
| 20260506135656 | 11 | 322 | 11.3 | 33.8 | 0.00 | 0.00 | 0.00 | 83 | 1014.9 |
| 20260506135152 | 11 | 20 | 17.7 | 24.1 | 0.00 | 0.00 | 0.00 | 83 | 1015.1 |
| 20260506134649 | 11 | 340 | 20.9 | 29.0 | 0.00 | 0.00 | 0.00 | 83 | 1015.2 |
| 20260506134145 | 11 | 24 | 17.7 | 24.1 | 0.00 | 0.00 | 0.00 | 83 | 1014.7 |
| 20260506133642 | 11 | 305 | 17.7 | 33.8 | 0.00 | 0.00 | 0.00 | 83 | 1014.6 |
| 20260506133139 | 11 | 41 | 20.9 | 29.0 | 0.00 | 0.00 | 0.00 | 83 | 1014.3 |
| 20260506132637 | 11 | 346 | 11.3 | 37.0 | 0.00 | 0.00 | 0.00 | 83 | 1014.3 |
| 20260506132133 | 11 | 33 | 25.7 | 41.8 | 0.00 | 0.00 | 0.00 | 83 | 1013.9 |
| 20260506131631 | 11 | 42 | 19.3 | 37.0 | 0.00 | 0.00 | 0.00 | 83 | 1013.9 |
| 20260506131127 | 11 | 31 | 8.0 | 24.1 | 0.00 | 0.00 | 0.00 | 83 | 1013.8 |
| 20260506130624 | 11 | 43 | 29.0 | 33.8 | 0.00 | 0.00 | 0.00 | 82 | 1013.8 |
| 20260506130121 | 11 | 110 | 12.9 | 37.0 | 0.00 | 0.00 | 0.00 | 82 | 1013.6 |
| 20260506125620 | 11 | 24 | 19.3 | 24.1 | 0.00 | 0.00 | 0.00 | 82 | 1013.4 |
| 20260506125117 | 11 | 346 | 17.7 | 37.0 | 0.00 | 0.00 | 0.00 | 82 | 1013.3 |
| 20260506124615 | 11 | 48 | 25.7 | 37.0 | 0.00 | 0.00 | 0.00 | 81 | 1013.0 |
| 20260506124112 | 11 | 26 | 3.2 | 29.0 | 0.00 | 0.00 | 0.00 | 80 | 1013.1 |
| 20260506123610 | 12 | 17 | 14.5 | 29.0 | 0.00 | 0.00 | 0.00 | 80 | 1013.1 |
| 20260506123108 | 12 | 58 | 14.5 | 24.1 | 0.00 | 0.00 | 0.00 | 79 | 1013.0 |
| 20260506122604 | 12 | 34 | 22.5 | 37.0 | 0.00 | 0.00 | 0.00 | 79 | 1013.0 |
| 20260506122103 | 12 | 359 | 19.3 | 45.1 | 0.00 | 0.00 | 0.00 | 78 | 1013.1 |
| 20260506121600 | 12 | 18 | 19.3 | 33.8 | 0.00 | 0.00 | 0.00 | 78 | 1012.8 |
| 20260506121056 | 12 | 321 | 24.1 | 33.8 | 0.00 | 0.00 | 0.00 | 77 | 1013.0 |
| 20260506120554 | 12 | 317 | 19.3 | 29.0 | 0.00 | 0.00 | 0.00 | 77 | 1012.9 |
| 20260506120051 | 12 | 26 | 16.1 | 29.0 | 0.00 | 0.00 | 0.00 | 76 | 1012.9 |
| 20260506115549 | 12 | 83 | 9.7 | 37.0 | 0.00 | 0.00 | 0.00 | 76 | 1012.6 |
| 20260506115047 | 12 | 136 | 3.2 | 37.0 | 0.00 | 0.00 | 0.00 | 76 | 1012.9 |
| 20260506114544 | 12 | 313 | 9.7 | 29.0 | 0.00 | 0.00 | 0.00 | 76 | 1012.7 |
| 20260506114043 | 12 | 56 | 12.9 | 33.8 | 0.00 | 0.00 | 0.00 | 76 | 1012.7 |
| 20260506113540 | 12 | 37 | 14.5 | 41.8 | 0.00 | 0.00 | 0.00 | 76 | 1012.7 |
| 20260506113037 | 12 | 332 | 17.7 | 29.0 | 0.00 | 0.00 | 0.00 | 77 | 1012.5 |
| 20260506112534 | 13 | 6 | 25.7 | 41.8 | 0.00 | 0.00 | 0.00 | 77 | 1012.4 |
| 20260506112031 | 13 | 52 | 12.9 | 20.9 | 0.00 | 0.00 | 0.00 | 76 | 1012.2 |
| 20260506111529 | 13 | 65 | 11.3 | 29.0 | 0.00 | 0.00 | 0.00 | 76 | 1012.3 |
| 20260506111026 | 13 | 1 | 17.7 | 20.9 | 0.00 | 0.00 | 0.00 | 76 | 1012.0 |
| 20260506110524 | 13 | 57 | 9.7 | 29.0 | 0.00 | 0.00 | 0.00 | 76 | 1012.0 |
| 20260506110021 | 13 | 36 | 12.9 | 29.0 | 0.00 | 0.00 | 0.00 | 76 | 1011.7 |
| 20260506105517 | 13 | 348 | 4.8 | 24.1 | 0.00 | 0.00 | 0.00 | 76 | 1011.8 |
| 20260506105014 | 13 | 36 | 12.9 | 20.9 | 0.00 | 0.00 | 0.00 | 76 | 1011.9 |
| 20260506104512 | 13 | 307 | 19.3 | 29.0 | 0.00 | 0.00 | 0.00 | 76 | 1011.7 |
| 20260506104010 | 13 | 75 | 8.0 | 45.1 | 0.00 | 0.00 | 0.00 | 76 | 1011.3 |
| 20260506103507 | 13 | 326 | 14.5 | 45.1 | 0.00 | 0.00 | 0.00 | 76 | 1011.3 |
| 20260506103003 | 13 | 9 | 11.3 | 20.9 | 0.00 | 0.00 | 0.00 | 76 | 1011.5 |
| 20260506102502 | 13 | 3 | 17.7 | 29.0 | 0.00 | 0.00 | 0.00 | 76 | 1011.5 |
| 20260506101959 | 13 | 33 | 16.1 | 29.0 | 0.00 | 0.00 | 0.00 | 76 | 1011.3 |
| 20260506101455 | 13 | 3 | 16.1 | 24.1 | 0.00 | 0.00 | 0.00 | 76 | 1011.2 |
| 20260506100952 | 13 | 40 | 11.3 | 20.9 | 0.00 | 0.00 | 0.00 | 76 | 1011.0 |
| 20260506100451 | 13 | 353 | 16.1 | 20.9 | 0.00 | 0.00 | 0.00 | 76 | 1010.9 |
| 20260506095948 | 13 | 52 | 3.2 | 16.1 | 0.00 | 0.00 | 0.00 | 77 | 1010.8 |
| 20260506095447 | 13 | 296 | 9.7 | 20.9 | 0.00 | 0.00 | 0.00 | 76 | 1010.9 |
| 20260506094942 | 13 | 44 | 9.7 | 16.1 | 0.00 | 0.00 | 0.00 | 76 | 1010.8 |
| 20260506094441 | 13 | 34 | 20.9 | 24.1 | 0.00 | 0.00 | 0.00 | 76 | 1010.8 |
| 20260506093938 | 13 | 13 | 9.7 | 24.1 | 0.00 | 0.00 | 0.00 | 77 | 1010.7 |
| 20260506093437 | 13 | 14 | 11.3 | 29.0 | 0.00 | 0.00 | 0.00 | 77 | 1010.7 |
| 20260506092934 | 13 | 54 | 6.4 | 12.9 | 0.00 | 0.00 | 0.00 | 77 | 1010.8 |
| 20260506092432 | 13 | 20 | 12.9 | 33.8 | 0.00 | 0.00 | 0.00 | 77 | 1010.9 |
| 20260506091928 | 13 | 29 | 11.3 | 20.9 | 0.00 | 0.00 | 0.00 | 77 | 1010.6 |
| 20260506091426 | 13 | 336 | 22.5 | 29.0 | 0.00 | 0.00 | 0.00 | 77 | 1010.6 |
| 20260506090923 | 13 | 339 | 16.1 | 24.1 | 0.00 | 0.00 | 0.00 | 78 | 1010.6 |
| 20260506090420 | 13 | 55 | 6.4 | 29.0 | 0.00 | 0.00 | 0.00 | 77 | 1010.5 |
| 20260506085917 | 14 | 64 | 4.8 | 29.0 | 0.00 | 0.00 | 0.00 | 77 | 1010.5 |
| 20260506085414 | 14 | 33 | 6.4 | 12.9 | 0.00 | 0.00 | 0.00 | 78 | 1010.6 |
| 20260506084910 | 14 | 355 | 8.0 | 29.0 | 0.00 | 0.00 | 0.00 | 77 | 1010.5 |
| 20260506084407 | 14 | 51 | 8.0 | 24.1 | 0.00 | 0.00 | 0.00 | 78 | 1010.5 |
| 20260506083903 | 14 | 7 | 9.7 | 29.0 | 0.00 | 0.00 | 0.00 | 78 | 1010.3 |
| 20260506083401 | 14 | 23 | 3.2 | 16.1 | 0.00 | 0.00 | 0.00 | 78 | 1010.5 |
| 20260506082858 | 14 | 346 | 9.7 | 24.1 | 0.00 | 0.00 | 0.00 | 77 | 1010.4 |
| 20260506082355 | 14 | 22 | 12.9 | 20.9 | 0.00 | 0.00 | 0.00 | 78 | 1010.1 |
| 20260506081851 | 14 | 4 | 16.1 | 20.9 | 0.00 | 0.00 | 0.00 | 78 | 1010.2 |
| 20260506081349 | 14 | 356 | 9.7 | 16.1 | 0.00 | 0.00 | 0.00 | 79 | 1010.2 |
| 20260506080846 | 14 | 355 | 12.9 | 20.9 | 0.00 | 0.00 | 0.00 | 78 | 1010.3 |
| 20260506080343 | 14 | 41 | 9.7 | 33.8 | 0.00 | 0.00 | 0.00 | 78 | 1010.2 |
| 20260506073327 | 15 | 13 | 17.7 | 20.9 | 0.00 | 0.00 | 0.00 | 80 | 1010.0 |
| 20260506072824 | 15 | 47 | 11.3 | 24.1 | 0.00 | 0.00 | 0.00 | 81 | 1010.2 |
| 20260506072321 | 15 | 51 | 11.3 | 16.1 | 0.00 | 0.00 | 0.00 | 81 | 1009.8 |
| 20260506071819 | 14 | 28 | 6.4 | 33.8 | 0.00 | 0.00 | 0.00 | 81 | 1010.0 |
| 20260506071317 | 14 | 136 | 8.0 | 20.9 | 0.00 | 0.00 | 0.00 | 81 | 1009.8 |
| 20260506070813 | 15 | 0 | 9.7 | 12.9 | 0.00 | 0.00 | 0.00 | 81 | 1010.0 |
| 20260506070310 | 15 | 41 | 3.2 | 16.1 | 0.00 | 0.00 | 0.00 | 81 | 1009.9 |
| 20260506062248 | 15 | 1 | 12.9 | 20.9 | 0.00 | 0.00 | 0.00 | 80 | 1009.9 |
| 20260506061743 | 15 | 58 | 9.7 | 24.1 | 0.00 | 0.00 | 0.00 | 80 | 1009.5 |
| 20260506061241 | 15 | 326 | 9.7 | 37.0 | 0.00 | 0.00 | 0.00 | 79 | 1009.8 |
| 20260506060739 | 15 | 26 | 22.5 | 33.8 | 0.00 | 0.00 | 0.00 | 79 | 1009.9 |
| 20260506060236 | 15 | 22 | 19.3 | 29.0 | 0.00 | 0.00 | 0.00 | 79 | 1009.8 |
| 20260506051208 | 16 | 35 | 20.9 | 33.8 | 0.00 | 0.00 | 0.00 | 78 | 1009.9 |
| 20260506050707 | 16 | 38 | 16.1 | 33.8 | 0.00 | 0.00 | 0.00 | 77 | 1010.0 |
| 20260506050203 | 16 | 12 | 9.7 | 24.1 | 0.00 | 0.00 | 0.00 | 77 | 1009.8 |
| 20260506044654 | 17 | 39 | 11.3 | 33.8 | 0.00 | 0.00 | 0.00 | 77 | 1009.8 |
| 20260506044151 | 17 | 16 | 12.9 | 29.0 | 0.00 | 0.00 | 0.00 | 77 | 1009.5 |
| 20260506043648 | 17 | 300 | 1.6 | 33.8 | 0.00 | 0.00 | 0.00 | 77 | 1009.4 |
| 20260506043146 | 17 | 1 | 12.9 | 29.0 | 0.00 | 0.00 | 0.00 | 77 | 1009.5 |
| 20260506042645 | 17 | 110 | 9.7 | 24.1 | 0.00 | 0.00 | 0.00 | 77 | 1009.5 |
| 20260506042143 | 17 | 18 | 14.5 | 29.0 | 0.00 | 0.00 | 0.00 | 76 | 1009.4 |
| 20260506041641 | 17 | 51 | 22.5 | 29.0 | 0.00 | 0.00 | 0.00 | 76 | 1009.5 |
| 20260506041137 | 18 | 5 | 16.1 | 29.0 | 0.00 | 0.00 | 0.00 | 76 | 1009.6 |
| 20260506040635 | 18 | 31 | 20.9 | 29.0 | 0.00 | 0.00 | 0.00 | 75 | 1009.9 |
| 20260506040132 | 18 | 352 | 14.5 | 45.1 | 0.00 | 0.00 | 0.00 | 75 | 1010.0 |
| 20260506035629 | 18 | 353 | 19.3 | 37.0 | 0.00 | 0.00 | 0.00 | 74 | 1009.6 |
| 20260506035125 | 18 | 37 | 20.9 | 33.8 | 0.00 | 0.00 | 0.00 | 74 | 1009.6 |
| 20260506034623 | 18 | 56 | 16.1 | 29.0 | 0.00 | 0.00 | 0.00 | 73 | 1009.4 |
| 20260506034119 | 18 | 340 | 20.9 | 29.0 | 0.00 | 0.00 | 0.00 | 73 | 1009.4 |
| 20260506033617 | 18 | 316 | 11.3 | 24.1 | 0.00 | 0.00 | 0.00 | 73 | 1009.1 |
| 20260506033114 | 18 | 34 | 19.3 | 37.0 | 0.00 | 0.00 | 0.00 | 72 | 1008.9 |
| 20260506032611 | 18 | 13 | 12.9 | 33.8 | 0.00 | 0.00 | 0.00 | 72 | 1008.9 |
| 20260506032107 | 19 | 307 | 8.0 | 20.9 | 0.00 | 0.00 | 0.00 | 72 | 1008.8 |
| 20260506031605 | 19 | 38 | 11.3 | 45.1 | 0.00 | 0.00 | 0.00 | 72 | 1008.8 |
| 20260506031102 | 19 | 343 | 19.3 | 33.8 | 0.00 | 0.00 | 0.00 | 72 | 1008.6 |
| 20260506030600 | 19 | 53 | 3.2 | 12.9 | 0.00 | 0.00 | 0.00 | 72 | 1008.5 |
| 20260506030057 | 19 | 354 | 12.9 | 33.8 | 0.00 | 0.00 | 0.00 | 72 | 1008.4 |
| 20260506025554 | 19 | 88 | 8.0 | 33.8 | 0.00 | 0.00 | 0.00 | 72 | 1008.5 |
| 20260506025050 | 19 | 37 | 29.0 | 45.1 | 0.00 | 0.00 | 0.00 | 71 | 1008.3 |
| 20260506024547 | 19 | 75 | 11.3 | 16.1 | 0.00 | 0.00 | 0.00 | 71 | 1008.0 |
| 20260506024044 | 19 | 30 | 14.5 | 33.8 | 0.00 | 0.00 | 0.00 | 71 | 1007.9 |
| 20260506023539 | 19 | 53 | 20.9 | 29.0 | 0.00 | 0.00 | 0.00 | 70 | 1008.2 |
| 20260506023037 | 20 | 291 | 19.3 | 33.8 | 0.00 | 0.00 | 0.00 | 70 | 1007.9 |
| 20260506022535 | 20 | 17 | 24.1 | 33.8 | 0.00 | 0.00 | 0.00 | 69 | 1007.8 |
| 20260506022032 | 20 | 143 | 8.0 | 29.0 | 0.00 | 0.00 | 0.00 | 70 | 1007.7 |
| 20260506021529 | 20 | 336 | 12.9 | 37.0 | 0.00 | 0.00 | 0.00 | 70 | 1007.6 |
| 20260506021026 | 20 | 9 | 19.3 | 49.9 | 0.00 | 0.00 | 0.00 | 70 | 1007.9 |
| 20260506020524 | 20 | 35 | 8.0 | 20.9 | 0.00 | 0.00 | 0.00 | 71 | 1007.6 |
| 20260506020021 | 20 | 353 | 8.0 | 24.1 | 0.00 | 0.00 | 0.00 | 70 | 1007.5 |
| 20260506015519 | 21 | 49 | 12.9 | 33.8 | 0.00 | 0.00 | 0.00 | 70 | 1007.4 |
| 20260506015015 | 21 | 50 | 17.7 | 33.8 | 0.00 | 0.00 | 0.00 | 69 | 1007.1 |
| 20260506014513 | 21 | 18 | 20.9 | 37.0 | 0.00 | 0.00 | 0.00 | 69 | 1006.9 |
| 20260506014009 | 21 | 43 | 16.1 | 29.0 | 0.00 | 0.00 | 0.00 | 69 | 1007.0 |
| 20260506013507 | 21 | 9 | 11.3 | 24.1 | 0.00 | 0.00 | 0.00 | 69 | 1006.8 |
| 20260506013003 | 21 | 22 | 20.9 | 29.0 | 0.00 | 0.00 | 0.00 | 69 | 1006.8 |
| 20260506012459 | 21 | 4 | 22.5 | 33.8 | 0.00 | 0.00 | 0.00 | 69 | 1006.3 |
| 20260506011956 | 21 | 32 | 1.6 | 24.1 | 0.00 | 0.00 | 0.00 | 68 | 1006.4 |
| 20260506011454 | 22 | 28 | 8.0 | 24.1 | 0.00 | 0.00 | 0.00 | 68 | 1006.2 |
| 20260506010950 | 22 | 29 | 12.9 | 20.9 | 0.00 | 0.00 | 0.00 | 67 | 1006.1 |
| 20260506010449 | 22 | 26 | 17.7 | 24.1 | 0.00 | 0.00 | 0.00 | 67 | 1005.9 |
| 20260506005945 | 22 | 11 | 3.2 | 24.1 | 0.00 | 0.00 | 0.00 | 66 | 1006.0 |
| 20260506005443 | 22 | 17 | 24.1 | 29.0 | 0.00 | 0.00 | 0.00 | 66 | 1006.3 |
| 20260506004938 | 22 | 78 | 4.8 | 16.1 | 0.00 | 0.00 | 0.00 | 66 | 1005.9 |
| 20260506004436 | 22 | 30 | 17.7 | 24.1 | 0.00 | 0.00 | 0.00 | 65 | 1005.8 |
| 20260506003931 | 22 | 299 | 9.7 | 20.9 | 0.00 | 0.00 | 0.00 | 65 | 1005.8 |
| 20260506003429 | 22 | 102 | 8.0 | 24.1 | 0.00 | 0.00 | 0.00 | 64 | 1005.8 |
| 20260506002925 | 23 | 287 | 16.1 | 33.8 | 0.00 | 0.00 | 0.00 | 64 | 1005.5 |
| 20260506002421 | 23 | 298 | 6.4 | 12.9 | 0.00 | 0.00 | 0.00 | 64 | 1005.5 |
| 20260506001917 | 23 | 17 | 19.3 | 37.0 | 0.00 | 0.00 | 0.00 | 64 | 1005.6 |
| 20260506001414 | 23 | 49 | 11.3 | 20.9 | 0.00 | 0.00 | 0.00 | 64 | 1005.3 |
| 20260506000911 | 23 | 44 | 9.7 | 24.1 | 0.00 | 0.00 | 0.00 | 63 | 1005.3 |
| 20260506000409 | 23 | 348 | 12.9 | 16.1 | 0.00 | 0.00 | 0.00 | 62 | 1005.1 |
| 20260505235905 | 23 | 337 | 9.7 | 41.8 | 0.00 | 0.00 | 0.00 | 61 | 1005.3 |
| 20260505235403 | 24 | 322 | 20.9 | 29.0 | 0.00 | 0.00 | 0.00 | 60 | 1005.3 |
| 20260505234900 | 24 | 76 | 19.3 | 29.0 | 0.00 | 0.00 | 0.00 | 60 | 1005.3 |
| 20260505234358 | 24 | 334 | 19.3 | 41.8 | 0.00 | 0.00 | 0.00 | 59 | 1005.1 |
| 20260505233854 | 25 | 57 | 12.9 | 37.0 | 0.00 | 0.00 | 0.00 | 59 | 1005.3 |
| 20260505233352 | 25 | 275 | 19.3 | 66.0 | 0.00 | 0.00 | 0.00 | 59 | 1004.9 |
| 20260505232849 | 26 | 61 | 17.7 | 37.0 | 0.00 | 0.00 | 0.00 | 59 | 1004.8 |
| 20260505232347 | 26 | 228 | 17.7 | 24.1 | 0.00 | 0.00 | 0.00 | 59 | 1004.9 |
| 20260505231843 | 26 | 13 | 19.3 | 29.0 | 0.00 | 0.00 | 0.00 | 58 | 1005.0 |
| 20260505231341 | 26 | 346 | 35.4 | 53.1 | 0.00 | 0.00 | 0.00 | 59 | 1004.9 |
| 20260505230839 | 26 | 332 | 11.3 | 24.1 | 0.00 | 0.00 | 0.00 | 58 | 1004.7 |
| 20260505230336 | 26 | 303 | 16.1 | 33.8 | 0.00 | 0.00 | 0.00 | 58 | 1004.8 |
| 20260505225833 | 27 | 318 | 16.1 | 37.0 | 0.00 | 0.00 | 0.00 | 59 | 1004.8 |
| 20260505225330 | 27 | 334 | 24.1 | 37.0 | 0.00 | 0.00 | 0.00 | 59 | 1004.7 |
| 20260505224825 | 27 | 20 | 24.1 | 45.1 | 0.00 | 0.00 | 0.00 | 59 | 1004.7 |
| 20260505224323 | 29 | 352 | 24.1 | 29.0 | 0.00 | 0.00 | 0.00 | 56 | 1004.4 |
| 20260505223820 | 29 | 335 | 16.1 | 37.0 | 0.00 | 0.00 | 0.00 | 53 | 1004.3 |
| 20260505223317 | 30 | 47 | 6.4 | 37.0 | 0.00 | 0.00 | 0.00 | 51 | 1004.2 |
| 20260505222812 | 29 | 65 | 9.7 | 33.8 | 0.00 | 0.00 | 0.00 | 50 | 1004.3 |
| 20260505222309 | 29 | 330 | 11.3 | 29.0 | 0.00 | 0.00 | 0.00 | 49 | 1004.2 |
| 20260505221806 | 28 | 63 | 16.1 | 20.9 | 0.00 | 0.00 | 0.00 | 49 | 1004.1 |
| 20260505221303 | 29 | 263 | 11.3 | 29.0 | 0.00 | 0.00 | 0.00 | 48 | 1004.2 |
| 20260505220800 | 30 | 323 | 14.5 | 29.0 | 0.00 | 0.00 | 0.00 | 47 | 1004.0 |
| 20260505220257 | 30 | 343 | 14.5 | 20.9 | 0.00 | 0.00 | 0.00 | 46 | 1004.0 |
| 20260505215755 | 30 | 208 | 6.4 | 24.1 | 0.00 | 0.00 | 0.00 | 46 | 1003.8 |
| 20260505215253 | 30 | 344 | 16.1 | 37.0 | 0.00 | 0.00 | 0.00 | 46 | 1004.0 |
| 20260505214750 | 31 | 321 | 20.9 | 37.0 | 0.00 | 0.00 | 0.00 | 45 | 1004.0 |
| 20260505214247 | 33 | 346 | 25.7 | 41.8 | 0.00 | 0.00 | 0.00 | 42 | 1003.9 |
| 20260505213744 | 35 | 258 | 12.9 | 20.9 | 0.00 | 0.00 | 0.00 | 42 | 1003.9 |
| 20260505213242 | 34 | 344 | 6.4 | 37.0 | 0.00 | 0.00 | 0.00 | 44 | 1003.9 |
| 20260505212737 | 33 | 249 | 16.1 | 24.1 | 0.00 | 0.00 | 0.00 | 44 | 1003.9 |
| 20260505212235 | 33 | 245 | 6.4 | 20.9 | 0.00 | 0.00 | 0.00 | 44 | 1003.9 |
| 20260505211732 | 33 | 248 | 6.4 | 16.1 | 0.00 | 0.00 | 0.00 | 43 | 1004.1 |
| 20260505211229 | 32 | 204 | 1.6 | 24.1 | 0.00 | 0.00 | 0.00 | 46 | 1003.9 |
| 20260505210725 | 32 | 179 | 20.9 | 29.0 | 0.00 | 0.00 | 0.00 | 44 | 1004.1 |
| 20260505210222 | 33 | 194 | 6.4 | 8.0 | 0.00 | 0.00 | 0.00 | 45 | 1004.2 |
| 20260505205720 | 33 | 226 | 11.3 | 16.1 | 0.00 | 0.00 | 0.00 | 44 | 1004.3 |
| 20260505205218 | 33 | 237 | 4.8 | 24.1 | 0.00 | 0.00 | 0.00 | 44 | 1004.5 |
| 20260505204714 | 33 | 190 | 19.3 | 24.1 | 0.00 | 0.00 | 0.00 | 43 | 1004.4 |
| 20260505204212 | 32 | 260 | 11.3 | 20.9 | 0.00 | 0.00 | 0.00 | 45 | 1004.6 |
| 20260505203709 | 32 | 212 | 20.9 | 29.0 | 0.00 | 0.00 | 0.00 | 45 | 1004.5 |
| 20260505203206 | 32 | 264 | 11.3 | 16.1 | 0.00 | 0.00 | 0.00 | 45 | 1004.5 |
| 20260505202701 | 33 | 230 | 14.5 | 24.1 | 0.00 | 0.00 | 0.00 | 45 | 1004.2 |
| 20260505202158 | 32 | 276 | 20.9 | 45.1 | 0.00 | 0.00 | 0.00 | 47 | 1004.6 |
| 20260505201654 | 33 | 198 | 16.1 | 37.0 | 0.00 | 0.00 | 0.00 | 48 | 1004.5 |
| 20260505201153 | 32 | 253 | 11.3 | 20.9 | 0.00 | 0.00 | 0.00 | 46 | 1004.6 |
| 20260505200650 | 33 | 273 | 17.7 | 41.8 | 0.00 | 0.00 | 0.00 | 46 | 1004.7 |
| 20260505200147 | 32 | 198 | 14.5 | 29.0 | 0.00 | 0.00 | 0.00 | 47 | 1004.9 |
| 20260505195643 | 32 | 325 | 12.9 | 24.1 | 0.00 | 0.00 | 0.00 | 48 | 1004.9 |
| 20260505195140 | 32 | 217 | 4.8 | 24.1 | 0.00 | 0.00 | 0.00 | 54 | 1004.9 |
| 20260505194637 | 31 | 229 | 16.1 | 37.0 | 0.00 | 0.00 | 0.00 | 51 | 1004.8 |
| 20260505194133 | 32 | 271 | 12.9 | 20.9 | 0.00 | 0.00 | 0.00 | 50 | 1004.8 |
| 20260505193630 | 32 | 213 | 11.3 | 24.1 | 0.00 | 0.00 | 0.00 | 52 | 1004.8 |
| 20260505193127 | 31 | 270 | 19.3 | 45.1 | 0.00 | 0.00 | 0.00 | 52 | 1005.0 |
| 20260505192626 | 31 | 109 | 1.6 | 33.8 | 0.00 | 0.00 | 0.00 | 52 | 1004.8 |
| 20260505192123 | 31 | 214 | 19.3 | 29.0 | 0.00 | 0.00 | 0.00 | 53 | 1004.8 |
| 20260505191621 | 31 | 151 | 12.9 | 37.0 | 0.00 | 0.00 | 0.00 | 56 | 1004.9 |
| 20260505191119 | 31 | 172 | 11.3 | 37.0 | 0.00 | 0.00 | 0.00 | 56 | 1004.8 |
| 20260505190614 | 31 | 216 | 17.7 | 33.8 | 0.00 | 0.00 | 0.00 | 54 | 1004.6 |
| 20260505190109 | 31 | 171 | 12.9 | 24.1 | 0.00 | 0.00 | 0.00 | 57 | 1004.7 |
| 20260505185607 | 31 | 218 | 8.0 | 29.0 | 0.00 | 0.00 | 0.00 | 57 | 1004.7 |
| 20260505185103 | 31 | 223 | 16.1 | 37.0 | 0.00 | 0.00 | 0.00 | 55 | 1004.8 |
| 20260505184559 | 31 | 184 | 17.7 | 37.0 | 0.00 | 0.00 | 0.00 | 55 | 1004.8 |
| 20260505184056 | 30 | 287 | 17.7 | 29.0 | 0.00 | 0.00 | 0.00 | 56 | 1004.8 |
| 20260505183553 | 30 | 252 | 20.9 | 41.8 | 0.00 | 0.00 | 0.00 | 58 | 1004.8 |
| 20260505183051 | 30 | 270 | 24.1 | 33.8 | 0.00 | 0.00 | 0.00 | 57 | 1004.9 |
| 20260505182547 | 30 | 229 | 14.5 | 37.0 | 0.00 | 0.00 | 0.00 | 59 | 1004.8 |
| 20260505182044 | 30 | 256 | 9.7 | 20.9 | 0.00 | 0.00 | 0.00 | 59 | 1005.1 |
| 20260505181540 | 29 | 238 | 24.1 | 53.1 | 0.00 | 0.00 | 0.00 | 60 | 1005.2 |
| 20260505181038 | 29 | 157 | 16.1 | 29.0 | 0.00 | 0.00 | 0.00 | 61 | 1005.0 |
| 20260505180533 | 28 | 212 | 17.7 | 49.9 | 0.00 | 0.00 | 0.00 | 62 | 1005.0 |
| 20260505180032 | 28 | 175 | 20.9 | 33.8 | 0.00 | 0.00 | 0.00 | 62 | 1005.2 |
| 20260505175531 | 28 | 85 | 6.4 | 41.8 | 0.00 | 0.00 | 0.00 | 62 | 1005.3 |
| 20260505175029 | 28 | 230 | 24.1 | 37.0 | 0.00 | 0.00 | 0.00 | 64 | 1005.2 |
| 20260505174526 | 28 | 241 | 12.9 | 29.0 | 0.00 | 0.00 | 0.00 | 64 | 1005.2 |
| 20260505174022 | 28 | 115 | 6.4 | 24.1 | 0.00 | 0.00 | 0.00 | 64 | 1005.2 |
| 20260505173519 | 28 | 202 | 9.7 | 29.0 | 0.00 | 0.00 | 0.00 | 64 | 1005.5 |
| 20260505173015 | 28 | 259 | 16.1 | 49.9 | 0.00 | 0.00 | 0.00 | 64 | 1005.5 |
| 20260505172514 | 28 | 180 | 1.6 | 20.9 | 0.00 | 0.00 | 0.00 | 67 | 1005.1 |
| 20260505172009 | 28 | 293 | 8.0 | 33.8 | 0.00 | 0.00 | 0.00 | 67 | 1005.6 |
| 20260505171505 | 27 | 334 | 8.0 | 24.1 | 0.00 | 0.00 | 0.00 | 67 | 1005.6 |
| 20260505171002 | 27 | 210 | 8.0 | 33.8 | 0.00 | 0.00 | 0.00 | 67 | 1005.5 |
| 20260505170458 | 27 | 210 | 9.7 | 37.0 | 0.00 | 0.00 | 0.00 | 67 | 1005.2 |
| 20260505165954 | 27 | 236 | 14.5 | 37.0 | 0.00 | 0.00 | 0.00 | 67 | 1005.2 |